Location: *
(42.5628°N, 2.3633°E)
Time: 07:28:41
(UTC+00:00)

STARLINK-1198 - Pass Details

Date: 30 March 2020
Orbit: 548 x 551 km, 53.0° (Epoch: 04 June)

Event Time Altitude Azimuth Distance (km) Brightness Sun altitude
Rises 18:47:06 0° 268° (W) 2,716 9.1 -6.7°
Reaches altitude 10° 18:49:35 10° 280° (W) 1,824 8.1 -7.2°
Maximum altitude 18:53:10 28° 340° (NNW) 1,056 5.5 -7.8°
Drops below altitude 10° 18:56:47 10° 41° (NE) 1,828 6.0 -8.5°
Sets 18:59:16 0° 53° (NE) 2,723 6.8 -8.9°
Enters shadow 18:59:18 - 53° (NE) 2,733 6.8 -8.9°
